Weather History for Prescott, AZ

Change the Weather History Date:

Friday, September 13, 2013

  Actual Average Record
Temperature  
Mean Temperature 68 °F 69 °F  
Max Temperature 83 °F 83 °F 95 °F (1948)
Min Temperature 53 °F 55 °F 37 °F (1952)
Degree Days  
Heating Degree Days 0    
Month to date heating degree days 7  
Since 1 July heating degree days 7  
Cooling Degree Days 3    
Month to date cooling degree days 71  
Year to date cooling degree days 1092  
Growing Degree Days 18 (Base 50)    
Moisture  
Dew Point 51 °F    
Average Humidity 57    
Maximum Humidity 83    
Minimum Humidity 30    
Precipitation  
Precipitation 0.00 in 0.05 in 1.28 in (1969)
Month to date precipitation 2.47 0.73  
Year to date precipitation 10.69 10.39  
Sea Level Pressure  
Sea Level Pressure 29.79 in    
Wind  
Wind Speed 3 mph (SSW)    
Max Wind Speed 12 mph    
Max Gust Speed 17 mph    
Visibility 10 miles    
Events      
T = Trace of Precipitation, MM = Missing Value Source: NWS Daily Summary

Daily Weather History Graph

Daily Weather History Graph

Search for Another Location

Airport:

Trip Planner

Search our weather history database for the weather conditions in past years. The results will help you decide how hot, cold, wet, or windy it might be!

Date:

Astronomy

Sep. 13, 2013 Rise Set
Actual Time 6:11 AM MST 6:38 PM MST
Civil Twilight 5:46 AM MST 7:04 PM MST
Nautical Twilight 5:16 AM MST 7:33 PM MST
Astronomical Twilight 4:46 AM MST 8:03 PM MST
Moon 2:21 PM MST (9/13) No Moon Set
Length of Visible Light 13h 17m
Length of Day
12h 27m
Waxing Gibbous, 62% of the Moon is Illuminated
Sep 13
Waxing Gibbous
Sep 19
Full
Sep 26
Last Quarter
Oct 4
New
Oct 11
First Quarter

Hourly Weather History & Observations

Time (MST) Temp. Heat Index Dew Point Humidity Pressure Visibility Wind Dir Wind Speed Gust Speed Precip Events Conditions
12:53 AM 57.9 °F - 52.0 °F 81% 29.86 in 10.0 mi South 3.5 mph - N/A   Clear
1:53 AM 57.0 °F - 50.0 °F 77% 29.86 in 10.0 mi South 8.1 mph - N/A   Clear
2:53 AM 57.0 °F - 50.0 °F 77% 29.84 in 10.0 mi South 5.8 mph - N/A   Clear
3:53 AM 55.0 °F - 50.0 °F 83% 29.84 in 10.0 mi South 4.6 mph - N/A   Clear
4:53 AM 55.0 °F - 50.0 °F 83% 29.83 in 10.0 mi SSW 4.6 mph - N/A   Clear
5:53 AM 55.0 °F - 48.9 °F 80% 29.84 in 10.0 mi Calm Calm - N/A   Clear
6:53 AM 55.0 °F - 48.9 °F 80% 29.86 in 10.0 mi SSW 4.6 mph - N/A   Clear
7:53 AM 63.0 °F - 52.0 °F 67% 29.85 in 10.0 mi Calm Calm - N/A   Clear
8:53 AM 69.1 °F - 51.1 °F 53% 29.84 in 10.0 mi Calm Calm - N/A   Clear
9:53 AM 72.0 °F - 52.0 °F 49% 29.83 in 10.0 mi Calm Calm - N/A   Clear
10:53 AM 77.0 °F - 53.1 °F 43% 29.81 in 10.0 mi Variable 3.5 mph - N/A   Partly Cloudy
11:53 AM 78.1 °F - 52.0 °F 40% 29.79 in 10.0 mi North 6.9 mph - N/A   Partly Cloudy
12:53 PM 80.1 °F 79.9 °F 53.1 °F 39% 29.78 in 10.0 mi NNW 6.9 mph - N/A   Clear
1:53 PM 80.1 °F - 51.1 °F 36% 29.75 in 10.0 mi Variable 5.8 mph - N/A   Clear
2:53 PM 81.0 °F - 52.0 °F 36% 29.73 in 10.0 mi Calm Calm - N/A   Scattered Clouds
3:53 PM 82.0 °F - 48.9 °F 31% 29.71 in 10.0 mi Calm Calm - N/A   Scattered Clouds
4:53 PM 81.0 °F - 46.9 °F 30% 29.71 in 10.0 mi NNE 4.6 mph - N/A   Scattered Clouds
5:53 PM 80.1 °F - 48.0 °F 32% 29.71 in 10.0 mi NNE 5.8 mph - N/A   Clear
6:53 PM 75.0 °F - 51.1 °F 43% 29.73 in 10.0 mi Calm Calm - N/A   Partly Cloudy
7:53 PM 70.0 °F - 53.1 °F 55% 29.74 in 10.0 mi Calm Calm - N/A   Clear
8:53 PM 66.9 °F - 51.1 °F 57% 29.75 in 10.0 mi South 6.9 mph - N/A   Clear
9:53 PM 66.0 °F - 51.1 °F 59% 29.75 in 10.0 mi South 6.9 mph - N/A   Clear
10:53 PM 64.9 °F - 52.0 °F 63% 29.75 in 10.0 mi Calm Calm - N/A   Clear
11:53 PM 62.1 °F - 52.0 °F 70% 29.75 in 10.0 mi SW 3.5 mph - N/A   Clear